Flag for Germany Weather past 2 weeks in Bocholt, North Rhine-Westphalia, Germany

Now
39 °F

Partly sunny.


Feels Like: 37 °F
Forecast: 32 / 40 °F
Wind: 3 mph from Northwest

Location: Niederrhein

Current Time: Feb 1, 2015 at 6:36:50 PM

Latest Report: Feb 1, 2015 at 5:50 PM


Visibility: N/A

Pressure: 29.33 "Hg

Humidity: 100%

Dew point: 39 °F

Location of BocholtLocation

Historic Weather in Bocholt — Graph

°F

Bocholt temperature yesterday

Maximum temperature yesterday: 41 °F (at 1:50 PM)
Minimum temperature yesterday: 32 °F (at 8:50 AM)
Average temperature yesterday: 36 °F

Past Weeks' High & Low Weather Summary

 TemperatureHumidityPressure
High46 °F (Jan 26, 4:20 PM)100% (Jan 18, 5:20 AM)30.42 "Hg (Jan 18, 5:20 AM)
Low27 °F (Jan 21, 5:20 AM)65% (Jan 21, 1:20 PM)28.68 "Hg (Jan 29, 11:50 PM)
Average36 °F96%29.78 "Hg
* Reported Jan 17 5:20 PM — Feb 1 5:20 PM, Bocholt, Weather by CustomWeather, © 2014

Note: Actual official high and low records may vary slightly from our data, if they occured in-between our weather recording intervals... More about our weather records

Advertising

Bocholt weather history for previous 24 hours

 ConditionsComfort  
Time TempWeatherWind HumidityBarometerVisibility
5:20 PM
Feb 1
39 °FPartly sunny.2 mph100%29.33 "Hg6 mi
4:50 PM39 °FScattered clouds.1 mph100%29.30 "HgN/A
4:20 PM39 °FPartly sunny.1 mph100%29.30 "HgN/A
3:50 PM39 °FPartly sunny.1 mph100%29.27 "HgN/A
3:20 PM39 °FScattered clouds.2 mph100%29.27 "HgN/A
2:50 PM39 °FScattered clouds.5 mph100%29.24 "HgN/A
2:20 PM39 °FPartly sunny.5 mph100%29.24 "HgN/A
1:50 PM39 °FSprinkles. Partly sunny.6 mph100%29.24 "Hg6 mi
1:20 PM39 °FScattered clouds.7 mph100%29.21 "Hg6 mi
12:50 PM39 °FBroken clouds.8 mph100%29.21 "HgN/A
12:20 PM39 °FPartly sunny.8 mph100%29.21 "HgN/A
11:50 AM39 °FScattered clouds.9 mph100%29.21 "HgN/A
11:20 AM39 °FPassing clouds.7 mph100%29.21 "Hg6 mi
10:50 AM36 °FFog.6 mph100%29.18 "Hg1 mi
10:20 AM36 °FFog.5 mph100%29.18 "Hg1 mi
9:50 AM34 °FFog.6 mph100%29.18 "Hg1 mi
9:20 AM34 °FFog.9 mph100%29.18 "Hg1 mi
8:50 AM34 °FFog.8 mph100%29.15 "Hg1 mi
8:20 AM34 °FFog.7 mph100%29.15 "Hg1 mi
7:50 AM34 °FFog.7 mph100%29.15 "Hg1 mi
7:20 AM34 °FFog.7 mph100%29.15 "Hg1 mi
6:50 AM34 °FFog.8 mph100%29.15 "Hg1 mi
6:20 AM34 °FFog.8 mph100%29.12 "Hg1 mi
5:50 AM34 °FFog.7 mph100%29.15 "Hg1 mi
5:20 AM34 °FFog.7 mph100%29.12 "Hg2 mi
4:50 AM34 °FFog.8 mph100%29.12 "Hg2 mi
11:50 PM
Jan 31
32 °FIce fog.3 mph100%29.12 "Hg3 mi
11:20 PM34 °FFog.5 mph100%29.12 "Hg3 mi
10:50 PM34 °FPassing clouds.5 mph100%29.12 "Hg4 mi
10:20 PM34 °FPassing clouds.5 mph100%29.12 "Hg6 mi
9:50 PM36 °FPassing clouds.6 mph100%29.09 "Hg6 mi
9:20 PM36 °FPassing clouds.6 mph100%29.09 "Hg5 mi
8:50 PM36 °FPassing clouds.7 mph100%29.09 "Hg5 mi
8:20 PM36 °FPassing clouds.8 mph100%29.09 "Hg6 mi
7:50 PM36 °FClear.5 mph100%29.09 "Hg6 mi
7:20 PM36 °FPassing clouds.2 mph100%29.09 "Hg6 mi
6:50 PM34 °FPassing clouds.6 mph100%29.06 "Hg6 mi
6:20 PM34 °FLight rain. Scattered clouds.7 mph100%29.06 "HgN/A
Weather by CustomWeather, © 2014

See weather overviewHow to use our weather pages